Location: PSU-Greenbush Astrophysical Observatory
(37.5140°N, 94.9880°W)
Time: 13:19:14
(UTC-06:00)

Transit 2A - Pass Details

Date: 30 January 2020
Orbit: 600 x 959 km, 66.7° (Epoch: 19 February)

Event Time Altitude Azimuth Distance (km) Brightness Sun altitude
Rises 19:04:29 0° 223° (SW) 2,908 9.9 -16.7°
Reaches altitude 10° 19:06:52 10° 230° (SW) 1,974 9.0 -17.1°
Maximum altitude 19:11:03 43° 302° (WNW) 855 6.6 -17.9°
Enters shadow 19:15:04 11° 14° (NNE) 1,903 7.8 -18.7°
Drops below altitude 10° 19:15:11 10° 14° (NNE) 1,946 - -18.7°
Sets 19:17:32 0° 22° (NNE) 2,863 - -19.2°
